HK5988 SKGY-SKMD

Flight info

Callsign HK5988
Flight time N/A
Altitude 12500
Route TENJO GUADUAS HONDA SONSON LAUNION BELLO
Aircraft C208/L-S/C

Departure

Time 2026-05-05 18:42
Airport Guaymaral Airport (SKGY)

Arrival

Time N/A
Airport Enrique Olaya Herrera Airport (SKMD)
Time Latitude Longitude Altitude Speed Heading
2026-05-05 18:33 4.81555 -74.06856 8398 ft 0 kts 210°
2026-05-05 18:38 4.81528 -74.06880 8398 ft 12 kts 245°
2026-05-05 18:39 4.81455 -74.06941 8398 ft 14 kts 274°
2026-05-05 18:39 4.81476 -74.07042 8398 ft 15 kts 284°
2026-05-05 18:39 4.81503 -74.07150 8399 ft 16 kts 282°
2026-05-05 18:39 4.81514 -74.07234 8399 ft 7 kts 220°
2026-05-05 18:40 4.81464 -74.07246 8400 ft 8 kts 192°
2026-05-05 18:40 4.81448 -74.07248 8401 ft 0 kts 190°
2026-05-05 18:40 4.81442 -74.07249 8401 ft 3 kts 180°
2026-05-05 18:40 4.81420 -74.07214 8400 ft 11 kts 101°
2026-05-05 18:41 4.81391 -74.07093 8399 ft 31 kts 104°
2026-05-05 18:41 4.81314 -74.06771 8396 ft 65 kts 103°
2026-05-05 18:41 4.81185 -74.06241 8354 ft 83 kts 101°
2026-05-05 18:41 4.81020 -74.05664 8532 ft 92 kts 106°
2026-05-05 18:42 4.80875 -74.04999 8746 ft 99 kts 96°
2026-05-05 18:42 4.81123 -74.04408 9069 ft 105 kts 36°
2026-05-05 18:42 4.81847 -74.04109 9211 ft 119 kts 21°
2026-05-05 18:42 4.82670 -74.04213 9472 ft 123 kts 334°
2026-05-05 18:43 4.83414 -74.04625 9728 ft 121 kts 335°
2026-05-05 18:43 4.84165 -74.05012 9945 ft 122 kts 335°
2026-05-05 18:43 4.84936 -74.05389 10145 ft 124 kts 337°
2026-05-05 18:43 4.85740 -74.05767 10347 ft 131 kts 335°
2026-05-05 18:44 4.86312 -74.06483 10786 ft 139 kts 277°
2026-05-05 18:44 4.86403 -74.07449 10997 ft 141 kts 273°
2026-05-05 18:44 4.86519 -74.08444 11212 ft 148 kts 275°
2026-05-05 18:44 4.86671 -74.09477 11427 ft 150 kts 277°
2026-05-05 18:45 4.86769 -74.10527 11628 ft 153 kts 272°
2026-05-05 18:45 4.86863 -74.11599 11823 ft 155 kts 275°
2026-05-05 18:45 4.86996 -74.12678 12018 ft 157 kts 275°
2026-05-05 18:45 4.87128 -74.13774 12209 ft 160 kts 275°
2026-05-05 18:46 4.87282 -74.14884 12399 ft 162 kts 281°
2026-05-05 18:46 4.87497 -74.16022 12479 ft 172 kts 277°
2026-05-05 18:46 4.87684 -74.17237 12475 ft 184 kts 278°
2026-05-05 18:46 4.87899 -74.18540 12456 ft 195 kts 278°
2026-05-05 18:47 4.88130 -74.19892 12443 ft 197 kts 279°
2026-05-05 18:47 4.88359 -74.21242 12434 ft 195 kts 278°
2026-05-05 18:47 4.88572 -74.22561 12408 ft 188 kts 277°
2026-05-05 18:47 4.88907 -74.23811 12374 ft 184 kts 295°
2026-05-05 18:48 4.89488 -74.24946 12363 ft 182 kts 298°
2026-05-05 18:48 4.90056 -74.26076 12359 ft 178 kts 296°
2026-05-05 18:48 4.90603 -74.27198 12298 ft 183 kts 301°
2026-05-05 18:48 4.91180 -74.28298 12359 ft 176 kts 296°
2026-05-05 18:49 4.91702 -74.29402 12466 ft 170 kts 295°
2026-05-05 18:49 4.92219 -74.30469 12342 ft 174 kts 297°
2026-05-05 18:49 4.92763 -74.31567 12351 ft 176 kts 296°
2026-05-05 18:49 4.93303 -74.32670 12350 ft 176 kts 297°
2026-05-05 18:50 4.93848 -74.33766 12338 ft 174 kts 297°
2026-05-05 18:50 4.94385 -74.34853 12343 ft 175 kts 296°
2026-05-05 18:50 4.94926 -74.35951 12297 ft 176 kts 296°
2026-05-05 18:50 4.95460 -74.37037 12302 ft 173 kts 295°
2026-05-05 18:51 4.95991 -74.38114 12295 ft 171 kts 295°
2026-05-05 18:51 4.96525 -74.39189 12300 ft 173 kts 295°
2026-05-05 18:51 4.97059 -74.40271 12305 ft 174 kts 295°
2026-05-05 18:51 4.97596 -74.41363 12310 ft 175 kts 295°
2026-05-05 18:52 4.98142 -74.42466 12312 ft 177 kts 295°
2026-05-05 18:52 4.98687 -74.43576 12311 ft 178 kts 295°
2026-05-05 18:52 4.99241 -74.44690 12292 ft 180 kts 296°
2026-05-05 18:52 4.99794 -74.45812 12285 ft 178 kts 295°
2026-05-05 18:53 5.00338 -74.46920 12289 ft 176 kts 296°
2026-05-05 18:53 5.00882 -74.48017 12293 ft 176 kts 296°
2026-05-05 18:53 5.01425 -74.49118 12291 ft 176 kts 295°
2026-05-05 18:53 5.01972 -74.50228 12257 ft 179 kts 295°
2026-05-05 18:54 5.02526 -74.51352 12263 ft 181 kts 295°
2026-05-05 18:54 5.03090 -74.52493 12262 ft 183 kts 295°
2026-05-05 18:54 5.03653 -74.53632 12264 ft 182 kts 296°